Location: Sungai Laei
(2.6000°N, 113.7167°E)
Time: 10:53:16
(UTC+00:00)

Cosmos 2082 Rocket - Pass Details

Date: 22 May 2022
Orbit: 833 x 854 km, 71.0° (Epoch: 06 July)

Event Time Altitude Azimuth Distance (km) Brightness Sun altitude
Rises 21:39:26 0° 178° (S) 3,389 5.1 -9.0°
Reaches altitude 10° 21:42:05 10° 169° (S) 2,457 4.5 -8.4°
Maximum altitude 21:47:09 34° 105° (ESE) 1,352 3.9 -7.2°
Drops below altitude 10° 21:52:13 10° 41° (NE) 2,463 5.8 -6.0°
Sets 21:54:51 0° 32° (NNE) 3,399 6.3 -5.4°
